Total_Precipitation_Accumulation
1.77 1.82 1.76 1.71 1.64 1.49 1.40 1.41 1.45 1.30 1.11 0.87 0.69 0.60 0.61 0.59 0.65 0.46 0.38 0.39 0.31 0.24 0.21 0.19 0.19 0.19 0.19 0.17 0.16 0.15 0.15 0.14 0.14 0.18 0.23 0.30 0.36 0.39
1.74 1.83 1.84 1.85 1.85 1.73 1.57 1.47 1.36 1.32 1.24 1.02 0.77 0.61 0.68 0.65 0.68 0.48 0.43 0.49 0.39 0.33 0.27 0.24 0.22 0.22 0.21 0.17 0.12 0.09 0.08 0.07 0.09 0.13 0.25 0.47 0.57 0.55
1.56 1.63 1.73 1.82 1.93 1.93 1.87 1.71 1.53 1.46 1.37 1.21 0.95 0.69 0.70 0.74 0.68 0.56 0.48 0.40 0.38 0.37 0.31 0.28 0.25 0.23 0.25 0.24 0.20 0.15 0.11 0.09 0.08 0.11 0.18 0.32 0.62 0.71
1.35 1.34 1.42 1.54 1.66 1.79 1.85 1.80 1.75 1.61 1.51 1.47 1.27 0.97 0.76 0.72 0.70 0.69 0.61 0.50 0.48 0.51 0.45 0.39 0.34 0.30 0.28 0.26 0.23 0.20 0.17 0.13 0.11 0.11 0.13 0.17 0.25 0.39
1.12 1.11 1.13 1.23 1.34 1.47 1.56 1.63 1.71 1.73 1.68 1.57 1.44 1.25 0.98 0.85 0.83 0.79 0.73 0.74 0.63 0.60 0.58 0.52 0.48 0.43 0.41 0.37 0.32 0.28 0.24 0.21 0.18 0.15 0.13 0.12 0.14 0.19
0.88 0.91 0.94 0.96 1.01 1.13 1.28 1.46 1.61 1.70 1.74 1.70 1.56 1.31 1.15 1.05 0.96 0.95 0.96 0.93 0.85 0.72 0.69 0.64 0.63 0.55 0.50 0.45 0.40 0.36 0.33 0.32 0.29 0.25 0.20 0.16 0.13 0.11
0.71 0.63 0.65 0.71 0.72 0.74 0.80 1.07 1.30 1.46 1.55 1.61 1.52 1.33 1.13 1.04 0.95 0.97 1.02 1.07 1.02 0.94 0.87 0.74 0.68 0.61 0.57 0.54 0.47 0.40 0.34 0.32 0.31 0.30 0.26 0.24 0.22 0.19
0.62 0.58 0.57 0.61 0.55 0.48 0.49 0.67 0.95 1.11 1.26 1.39 1.42 1.28 1.14 1.04 1.03 1.02 0.98 0.97 0.95 0.84 0.74 0.77 0.72 0.69 0.64 0.60 0.62 0.57 0.49 0.42 0.37 0.32 0.32 0.32 0.32 0.31
0.66 0.68 0.63 0.59 0.67 0.57 0.49 0.51 0.60 0.71 0.85 1.04 1.22 1.25 1.31 1.20 1.04 0.94 0.91 0.90 0.88 0.87 0.77 0.71 0.66 0.64 0.60 0.60 0.64 0.61 0.58 0.53 0.47 0.42 0.39 0.38 0.38 0.38
0.74 0.76 0.78 0.74 0.71 0.77 0.71 0.72 0.68 0.62 0.70 0.62 0.76 1.07 1.18 1.19 1.10 1.03 0.99 0.90 0.83 0.81 0.75 0.75 0.73 0.68 0.57 0.52 0.55 0.51 0.47 0.47 0.48 0.49 0.50 0.49 0.47 0.44
0.72 0.79 0.80 0.73 0.77 0.82 0.91 0.97 0.90 0.76 0.89 0.91 0.81 0.86 0.94 0.95 0.98 0.98 0.98 0.88 0.82 0.78 0.64 0.58 0.58 0.59 0.58 0.55 0.50 0.49 0.44 0.41 0.40 0.37 0.34 0.34 0.34 0.35
0.74 0.79 0.92 0.81 0.77 0.76 0.81 0.91 0.91 0.80 0.70 0.72 0.68 0.59 0.52 0.58 0.71 0.79 0.93 0.98 0.90 0.79 0.64 0.53 0.55 0.51 0.53 0.49 0.41 0.40 0.38 0.36 0.34 0.31 0.29 0.24 0.21 0.19
0.86 0.90 0.86 0.89 0.70 0.66 0.69 0.68 0.73 0.70 0.69 0.74 0.79 0.70 0.60 0.55 0.56 0.57 0.65 0.77 0.82 0.74 0.62 0.51 0.49 0.46 0.41 0.38 0.37 0.37 0.36 0.33 0.28 0.27 0.26 0.24 0.21 0.18
0.77 0.76 0.73 0.77 0.59 0.51 0.48 0.53 0.57 0.55 0.60 0.73 0.75 0.72 0.70 0.66 0.61 0.57 0.56 0.58 0.63 0.65 0.59 0.49 0.46 0.41 0.36 0.32 0.33 0.37 0.34 0.30 0.25 0.22 0.20 0.22 0.21 0.20
0.50 0.58 0.58 0.55 0.48 0.40 0.44 0.47 0.48 0.50 0.57 0.61 0.63 0.61 0.60 0.61 0.60 0.59 0.55 0.51 0.48 0.42 0.38 0.39 0.42 0.43 0.39 0.34 0.30 0.33 0.34 0.30 0.25 0.23 0.22 0.19 0.17 0.17
0.40 0.40 0.39 0.38 0.40 0.40 0.41 0.43 0.47 0.51 0.54 0.53 0.52 0.55 0.54 0.56 0.59 0.56 0.56 0.55 0.56 0.51 0.46 0.43 0.42 0.44 0.44 0.40 0.34 0.29 0.32 0.33 0.30 0.26 0.23 0.20 0.19 0.18
0.49 0.41 0.37 0.37 0.40 0.46 0.47 0.42 0.43 0.46 0.47 0.46 0.47 0.48 0.46 0.50 0.53 0.49 0.48 0.49 0.49 0.46 0.46 0.48 0.46 0.44 0.42 0.43 0.44 0.43 0.43 0.42 0.40 0.38 0.31 0.25 0.22 0.21
0.48 0.54 0.55 0.59 0.61 0.59 0.56 0.46 0.39 0.38 0.41 0.46 0.47 0.46 0.44 0.43 0.47 0.48 0.46 0.45 0.43 0.39 0.34 0.33 0.37 0.40 0.40 0.38 0.33 0.35 0.41 0.42 0.45 0.45 0.38 0.31 0.25 0.25
0.44 0.59 0.59 0.57 0.53 0.50 0.46 0.39 0.32 0.27 0.26 0.33 0.42 0.49 0.48 0.46 0.49 0.51 0.46 0.40 0.38 0.38 0.35 0.28 0.27 0.30 0.32 0.31 0.29 0.26 0.28 0.32 0.34 0.34 0.33 0.30 0.28 0.28
0.38 0.45 0.45 0.43 0.36 0.29 0.22 0.17 0.16 0.15 0.14 0.17 0.21 0.29 0.42 0.50 0.57 0.59 0.59 0.57 0.53 0.48 0.44 0.35 0.28 0.23 0.22 0.22 0.20 0.17 0.17 0.21 0.26 0.25 0.24 0.25 0.24 0.24
0.17 0.18 0.17 0.18 0.16 0.13 0.10 0.07 0.06 0.06 0.07 0.08 0.11 0.15 0.22 0.33 0.47 0.56 0.59 0.62 0.60 0.58 0.55 0.49 0.43 0.40 0.32 0.29 0.27 0.20 0.17 0.16 0.16 0.15 0.15 0.16 0.16 0.17
0.08 0.07 0.06 0.06 0.06 0.06 0.05 0.05 0.04 0.04 0.05 0.07 0.11 0.16 0.24 0.28 0.30 0.38 0.47 0.50 0.47 0.44 0.44 0.45 0.45 0.44 0.40 0.38 0.35 0.28 0.22 0.19 0.20 0.22 0.18 0.16 0.14 0.13
0.06 0.06 0.05 0.04 0.03 0.04 0.05 0.04 0.03 0.03 0.04 0.05 0.08 0.14 0.20 0.28 0.30 0.29 0.30 0.33 0.35 0.38 0.40 0.40 0.39 0.39 0.39 0.41 0.42 0.39 0.32 0.27 0.26 0.28 0.30 0.37 0.33 0.22